Richmond, VA

9:24 PM EST on November 21, 2019 (GMT -0500)
Richmond International

Weather History for KRIC - September, 2019

Change the Weather History Date:

Sunday, September 22, 2019

  Actual Average Record
Temperature  
Mean Temperature 78 °F 68 °F  
Max Temperature 91 °F 79 °F 97 °F (1980)
Min Temperature 64 °F 58 °F 40 °F (1962)
Degree Days  
Heating Degree Days 0 1  
Month to date heating degree days 0 9  
Since 1 July heating degree days 0 10  
Cooling Degree Days 13 5  
Month to date cooling degree days 247 168  
Year to date cooling degree days 1869 1475  
Growing Degree Days 28 (Base 50)    
Moisture  
Dew Point 64 °F    
Average Humidity 63    
Maximum Humidity 87    
Minimum Humidity 41    
Precipitation  
Precipitation 0.00 in 0.13 in 2.68 in (1994)
Month to date precipitation 0.39 3.12  
Year to date precipitation 33.12 33.11  
Snow  
Snow 0.00 in 0.00 in 0.00 in (2002)
Month to date snowfall 0.0 0.0  
Since 1 July snowfall 0.0 0.0  
Snow Depth 0.00 in    
Sea Level Pressure  
Sea Level Pressure 30.14 in    
Wind  
Wind Speed 5 mph ()    
Max Wind Speed 16 mph    
Max Gust Speed 20 mph    
Visibility 10.0 miles    
Events      
T = Trace of Precipitation, MM = Missing Value Source: Averaged Metar Reports

Daily Weather History Graph

Daily Weather History Graph

Search for Another Location

Airport or City:

Astronomy

Sep. 22, 2019 Rise Set
Actual Time 6:56 AM EDT 7:06 PM EDT
Civil Twilight 6:30 AM EDT 7:32 PM EDT
Nautical Twilight 6:00 AM EDT 8:03 PM EDT
Astronomical Twilight 5:29 AM EDT 8:34 PM EDT
Moon No Moon Rise 2:52 PM EDT
Length of Visible Light 13h 01m
Length of Day
12h 09m
Last Quarter, 44% of the Moon is Illuminated
Sep 22
Last Quarter
Sep 28
New
Oct 5
First Quarter
Oct 13
Full
Oct 21
Last Quarter

Hourly Weather History & Observations

Time (EDT) Temp. Heat Index Dew Point Humidity Pressure Visibility Wind Dir Wind Speed Gust Speed Precip Events Conditions
12:54 AM 72.0 °F - 62.1 °F 71% 30.21 in 10.0 mi South 3.5 mph - N/A   Scattered Clouds
1:54 AM 70.0 °F - 62.1 °F 76% 30.20 in 10.0 mi Calm Calm - N/A   Scattered Clouds
2:54 AM 69.1 °F - 62.1 °F 78% 30.19 in 10.0 mi SE 3.5 mph - N/A   Scattered Clouds
3:54 AM 68.0 °F - 62.1 °F 81% 30.17 in 10.0 mi SSE 4.6 mph - N/A   Partly Cloudy
4:54 AM 68.0 °F - 62.1 °F 81% 30.18 in 10.0 mi South 4.6 mph - N/A   Partly Cloudy
5:54 AM 66.0 °F - 62.1 °F 87% 30.18 in 10.0 mi South 4.6 mph - N/A   Partly Cloudy
6:54 AM 66.0 °F - 62.1 °F 87% 30.18 in 10.0 mi South 4.6 mph - N/A   Partly Cloudy
7:54 AM 66.9 °F - 63.0 °F 87% 30.19 in 10.0 mi South 5.8 mph - N/A   Partly Cloudy
8:54 AM 72.0 °F - 64.0 °F 76% 30.19 in 10.0 mi SSW 6.9 mph - N/A   Partly Cloudy
9:54 AM 75.9 °F - 64.0 °F 67% 30.20 in 10.0 mi Calm Calm - N/A   Clear
10:54 AM 81.0 °F 82.5 °F 64.0 °F 56% 30.19 in 10.0 mi Calm Calm - N/A   Clear
11:54 AM 84.9 °F 86.6 °F 64.9 °F 51% 30.17 in 10.0 mi SW 5.8 mph - N/A   Clear
12:54 PM 88.0 °F 89.6 °F 64.9 °F 46% 30.14 in 10.0 mi South 6.9 mph - N/A   Partly Cloudy
1:54 PM 90.0 °F 92.4 °F 66.0 °F 45% 30.12 in 10.0 mi SSE 12.7 mph - N/A   Mostly Cloudy
2:54 PM 91.0 °F 93.0 °F 64.9 °F 42% 30.09 in 10.0 mi SE 15.0 mph - N/A   Scattered Clouds
3:54 PM 91.0 °F 92.6 °F 64.0 °F 41% 30.07 in 10.0 mi South 15.0 mph - N/A   Scattered Clouds
4:54 PM 89.1 °F 90.3 °F 64.0 °F 43% 30.07 in 10.0 mi South 12.7 mph - N/A   Scattered Clouds
5:54 PM 88.0 °F 88.7 °F 63.0 °F 43% 30.07 in 10.0 mi South 11.5 mph - N/A   Mostly Cloudy
6:54 PM 84.9 °F 86.1 °F 64.0 °F 49% 30.07 in 10.0 mi South 13.8 mph - N/A   Mostly Cloudy
7:54 PM 82.0 °F 83.4 °F 64.0 °F 54% 30.08 in 10.0 mi South 10.4 mph - N/A   Scattered Clouds
8:54 PM 78.1 °F - 64.0 °F 62% 30.09 in 10.0 mi South 8.1 mph - N/A   Partly Cloudy
9:54 PM 78.1 °F - 64.0 °F 62% 30.09 in 10.0 mi South 12.7 mph - N/A   Clear
10:54 PM 77.0 °F - 64.9 °F 66% 30.08 in 10.0 mi South 9.2 mph - N/A   Clear
11:54 PM 75.0 °F - 64.9 °F 71% 30.08 in 10.0 mi South 10.4 mph - N/A   Clear